Location: Cussy
(47.0410°N, 4.6412°E)
Time: 17:09:08
(UTC+00:00)

H-2A R/B - Visible Passes

Search period start: 16 April 2021 00:00
Search period end: 26 April 2021 00:00
Orbit: 732 x 837 km, 98.2° (Epoch: 15 April)

Date Brightness Start Highest point End Pass type
(mag) Time Alt. Az. Time Alt. Az. Time Alt. Az.
17 Apr 4.8 19:43:27 10° WSW 19:46:12 15° W 19:48:55 10° NW visible
18 Apr 4.2 19:10:38 10° SSW 19:14:52 27° W 19:19:04 10° NW visible
20 Apr 4.9 19:50:41 10° WSW 19:52:44 12° W 19:54:47 10° WNW visible
21 Apr 4.4 19:17:25 10° SW 19:21:22 23° W 19:25:19 10° NW visible
23 Apr 5.2 19:58:25 10° W 19:59:18 10° W 20:00:10 10° WNW visible
24 Apr 4.6 19:24:15 10° SW 19:27:53 20° W 19:31:31 10° NW visible
